�������r�C�����j�^�v���󋵏��
Date,Time,5�C6���@���p�r�C��,����,����(m/s)
2021/07/07,00:00,3.9,��,3.5
2021/07/07,00:10,3.9,��,3.7
2021/07/07,00:20,3.7,��,4.4
2021/07/07,00:30,4.0,��,4.3
2021/07/07,00:40,3.9,��,3.2
2021/07/07,00:50,4.0,��,1.7
2021/07/07,01:00,3.9,�쐼,1.5
2021/07/07,01:10,3.9,��쐼,1.4
2021/07/07,01:20,4.0,�쐼,2.3
2021/07/07,01:30,4.0,��쐼,2.0
2021/07/07,01:40,3.8,��,1.7
2021/07/07,01:50,4.0,��,3.0
2021/07/07,02:00,4.0,��쐼,2.9
2021/07/07,02:10,3.7,��쐼,5.0
2021/07/07,02:20,3.8,��쐼,5.8
2021/07/07,02:30,4.0,��쐼,6.0
2021/07/07,02:40,3.8,��,7.0
2021/07/07,02:50,3.8,��,5.7
2021/07/07,03:00,3.8,��,6.9
2021/07/07,03:10,3.8,��,5.5
2021/07/07,03:20,3.8,��,7.6
2021/07/07,03:30,4.0,��,7.5
2021/07/07,03:40,3.9,�쓌,4.0
2021/07/07,03:50,3.9,��쓌,6.9
2021/07/07,04:00,3.8,��쐼,6.0
2021/07/07,04:10,3.9,��,5.2
2021/07/07,04:20,3.8,��,5.2
2021/07/07,04:30,3.9,��,4.9
2021/07/07,04:40,4.0,��,5.1
2021/07/07,04:50,3.9,��,4.8
2021/07/07,05:00,3.9,��쓌,4.6
2021/07/07,05:10,4.0,��쓌,4.1
2021/07/07,05:20,3.8,��쓌,3.4
2021/07/07,05:30,4.0,��,1.5
2021/07/07,05:40,3.9,�k��,0.6
2021/07/07,05:50,4.0,�k�k��,2.3
2021/07/07,06:00,4.0,�k�k��,2.3
2021/07/07,06:10,3.8,�k��,2.0
2021/07/07,06:20,4.0,���k��,2.2
2021/07/07,06:30,3.9,�k�k��,2.0
2021/07/07,06:40,3.6,�k��,2.2
2021/07/07,06:50,4.0,��,2.6
2021/07/07,07:00,4.0,���쓌,4.9
2021/07/07,07:10,3.9,���쓌,3.6
2021/07/07,07:20,3.8,���쓌,3.2
2021/07/07,07:30,3.8,�쓌,2.9
2021/07/07,07:40,3.9,�쓌,3.3
2021/07/07,07:50,4.0,��쓌,3.1
2021/07/07,08:00,3.9,��쓌,3.2
2021/07/07,08:10,4.0,��쓌,3.9
2021/07/07,08:20,3.9,��,4.1
2021/07/07,08:30,4.0,��,4.6
2021/07/07,08:40,3.9,��쐼,3.2
2021/07/07,08:50,3.9,��쐼,3.6
2021/07/07,09:00,3.9,��쐼,3.1
2021/07/07,09:10,3.9,��,4.2
2021/07/07,09:20,3.9,��,3.3
2021/07/07,09:30,3.9,��쐼,3.6
2021/07/07,09:40,3.7,��,3.8
2021/07/07,09:50,3.8,��,2.3
2021/07/07,10:00,3.9,��,3.1
2021/07/07,10:10,3.9,��,3.1
2021/07/07,10:20,3.9,��,3.6
2021/07/07,10:30,3.9,��,4.1
2021/07/07,10:40,3.8,��,4.0
2021/07/07,10:50,3.8,��,3.1
2021/07/07,11:00,3.9,��,3.2
2021/07/07,11:10,3.8,��,3.2
2021/07/07,11:20,3.9,�쐼,2.9
2021/07/07,11:30,3.9,��,3.7
2021/07/07,11:40,4.0,��,3.3
2021/07/07,11:50,4.0,��,3.8
2021/07/07,12:00,3.8,�쓌,5.0
2021/07/07,12:10,3.9,�쓌,5.9
2021/07/07,12:20,3.7,�쓌,4.0
2021/07/07,12:30,3.8,�쓌,2.8
2021/07/07,12:40,3.9,���쓌,2.3
2021/07/07,12:50,3.9,���쓌,1.2
2021/07/07,13:00,3.9,��쓌,1.5
2021/07/07,13:10,3.9,�쓌,0.9
2021/07/07,13:20,3.9,�k��,1.1
2021/07/07,13:30,3.9,��,1.4
2021/07/07,13:40,3.9,���쓌,1.1
2021/07/07,13:50,3.9,���k��,1.1
2021/07/07,14:00,3.8,�쓌,0.9
2021/07/07,14:10,4.0,��쓌,1.2
2021/07/07,14:20,4.0,�쓌,1.5
2021/07/07,14:30,3.9,�쓌,1.5
2021/07/07,14:40,3.8,�쓌,1.5
2021/07/07,14:50,3.8,���쓌,1.2
2021/07/07,15:00,3.9,�쓌,1.2
2021/07/07,15:10,3.9,��,0.9
2021/07/07,15:20,3.9,���k��,0.8
2021/07/07,15:30,3.9,��,0.6
2021/07/07,15:40,3.8,-,CALM
2021/07/07,15:50,3.8,���쓌,0.6
2021/07/07,16:00,3.9,���쓌,1.1
2021/07/07,16:10,3.9,�쓌,0.6
2021/07/07,16:20,3.9,��,1.2
2021/07/07,16:30,3.8,�k��,1.1
2021/07/07,16:40,3.9,�k�k��,0.8
2021/07/07,16:50,4.0,�k,0.6
2021/07/07,17:00,3.9,�k,0.6
2021/07/07,17:10,4.0,�k�k��,0.9
2021/07/07,17:20,3.9,�k�k��,1.5
2021/07/07,17:30,3.9,�k,1.5
2021/07/07,17:40,3.9,�k�k��,2.0
2021/07/07,17:50,3.9,�k,2.3
2021/07/07,18:00,3.9,�k�k��,2.3
2021/07/07,18:10,3.9,�k,2.2
2021/07/07,18:20,4.1,�k,2.6
2021/07/07,18:30,4.0,�k,1.9
2021/07/07,18:40,4.0,�k,1.4
2021/07/07,18:50,3.9,�k,1.7
2021/07/07,19:00,4.0,�k,2.0
2021/07/07,19:10,3.8,�k,2.0
2021/07/07,19:20,3.9,�k,2.3
2021/07/07,19:30,3.8,�k,1.7
2021/07/07,19:40,3.9,�k,1.5
2021/07/07,19:50,3.9,�k,1.5
2021/07/07,20:00,4.0,�k,2.5
2021/07/07,20:10,3.7,�k,2.2
2021/07/07,20:20,4.1,�k,2.5
2021/07/07,20:30,4.0,�k,2.3
2021/07/07,20:40,4.0,�k�k��,1.5
2021/07/07,20:50,4.0,�k�k��,1.5
2021/07/07,21:00,3.9,�k,2.3
2021/07/07,21:10,3.8,�k�k��,1.4
2021/07/07,21:20,4.0,�k,2.5
2021/07/07,21:30,3.8,�k,3.1
2021/07/07,21:40,4.0,�k,2.6
2021/07/07,21:50,3.8,�k,3.3
2021/07/07,22:00,3.9,�k,3.0
2021/07/07,22:10,3.9,�k�k��,2.8
2021/07/07,22:20,3.9,�k,1.9
2021/07/07,22:30,3.9,�k��,1.1
2021/07/07,22:40,3.9,�k,2.0
2021/07/07,22:50,3.9,�k�k��,1.7
2021/07/07,23:00,3.9,�k�k��,1.2
2021/07/07,23:10,4.0,�k�k��,1.4
2021/07/07,23:20,3.9,�k,2.6
2021/07/07,23:30,3.8,�k,1.5
2021/07/07,23:40,3.9,�k�k��,1.7
2021/07/07,23:50,4.0,�k,2.0
